Flag for Germany Weather past 2 weeks in Apolda, Thuringia, Germany

Now
63 °F

Passing clouds.


Feels Like: 63 °F
Forecast: 62 / 71 °F
Wind: 2 mph from South

Location: Erfurt-Bindersleben

Current Time: Jul 7, 2015 at 9:10:04 AM

Latest Report: Jul 7, 2015 at 8:00 AM


Visibility: 37 mi

Pressure: 30.01 "Hg

Humidity: 74%

Dew point: 54 °F

Location of ApoldaLocation

Historic Weather in Apolda — Graph

°F

Apolda temperature yesterday

Maximum temperature yesterday: 76 °F (at 7:00 PM)
Minimum temperature yesterday: 62 °F (at 7:00 AM)
Average temperature yesterday: 70 °F

Past Weeks' High & Low Weather Summary

 TemperatureHumidityPressure
High97 °F (Jul 4, 4:00 PM)99% (Jun 23, 3:00 AM)30.25 "Hg (Jun 23, 3:00 AM)
Low46 °F (Jun 25, 5:00 AM)24% (Jul 4, 6:00 PM)29.65 "Hg (Jun 23, 2:00 AM)
Average67 °F65%30.09 "Hg
* Reported Jun 22 7:00 AM — Jul 7 7:00 AM, Apolda, Weather by CustomWeather, © 2015

Note: Actual official high and low records may vary slightly from our data, if they occured in-between our weather recording intervals... More about our weather records

Advertising

Apolda weather history for previous 24 hours

 ConditionsComfort  
Time TempWeatherWind HumidityBarometerVisibility
7:00 AM
Tue, Jul 7
59 °FSunny.1 mph84%30.03 "Hg43 mi
6:00 AM57 °FSunny.1 mph80%30.04 "Hg43 mi
5:00 AM57 °FClear.2 mph81%30.05 "Hg31 mi
4:00 AM59 °FClear.2 mph79%30.06 "Hg31 mi
3:00 AM61 °FClear.1 mph73%30.07 "Hg31 mi
2:00 AM62 °FClear.1 mph74%30.08 "Hg37 mi
1:00 AM64 °FClear.2 mph70%30.09 "Hg37 mi
12:00 AM67 °FClear.2 mph61%30.09 "Hg47 mi
11:00 PM
Mon, Jul 6
67 °FMild.2 mph62%30.10 "HgN/A
10:00 PM71 °FClear.1 mph49%30.08 "Hg47 mi
9:00 PM74 °FSunny.1 mph46%30.08 "Hg47 mi
8:00 PM75 °FPassing clouds.3 mph44%30.08 "Hg47 mi
7:00 PM76 °FPassing clouds.3 mph43%30.07 "Hg47 mi
6:00 PM76 °FPassing clouds.3 mph39%30.09 "Hg47 mi
5:00 PM76 °FPassing clouds.5 mph40%30.10 "Hg47 mi
4:00 PM75 °FPassing clouds.6 mph42%30.12 "Hg47 mi
3:00 PM74 °FPassing clouds.6 mph44%30.13 "Hg43 mi
2:00 PM73 °FPassing clouds.6 mph51%30.14 "Hg37 mi
1:00 PM71 °FPartly sunny.6 mph56%30.14 "Hg37 mi
12:00 PM70 °FPartly sunny.8 mph59%30.15 "Hg37 mi
11:00 AM67 °FPartly sunny.6 mph70%30.16 "Hg31 mi
10:00 AM66 °FMild.N/A74%30.16 "HgN/A
9:00 AM65 °FPartly sunny.5 mph78%30.15 "Hg31 mi
Weather by CustomWeather, © 2015

See weather overviewHow to use our weather pages